Private Wetterstation Sandau
Wetterdaten: Donnerstag, 20.09.2012
Datum Zeit Temp. A. Feuchte A. Luftdruck Regen Wind Richtung Richtung Taupunkt Windchill
20.09.2012 00:01 8,2 C 77 % 1020,2 hPa 0,0 l/m 8,6 km/h (2 Bft) W-SW 247 4,4 C 6,8 C
20.09.2012 00:06 8,2 C 77 % 1020,3 hPa 0,0 l/m 2,5 km/h (1 Bft) W 270 4,4 C 8,2 C
20.09.2012 00:11 8,1 C 76 % 1020,2 hPa 0,0 l/m 0,0 km/h (0 Bft) W 270 4,1 C 8,1 C
20.09.2012 00:16 8,1 C 77 % 1020,0 hPa 0,0 l/m 0,0 km/h (0 Bft) W 270 4,3 C 8,1 C
20.09.2012 00:21 8,1 C 76 % 1020,0 hPa 0,0 l/m 5,0 km/h (1 Bft) W 270 4,1 C 7,6 C
20.09.2012 00:26 8,1 C 76 % 1020,0 hPa 0,0 l/m 4,7 km/h (1 Bft) W 270 4,1 C 7,7 C
20.09.2012 00:31 8,1 C 76 % 1020,0 hPa 0,0 l/m 4,0 km/h (1 Bft) W 270 4,1 C 8,1 C
20.09.2012 00:36 8,1 C 77 % 1020,1 hPa 0,0 l/m 2,9 km/h (1 Bft) W-SW 247 4,3 C 8,1 C
20.09.2012 00:41 8,2 C 77 % 1020,3 hPa 0,0 l/m 5,8 km/h (2 Bft) W-SW 247 4,4 C 7,5 C
20.09.2012 00:46 8,2 C 77 % 1020,3 hPa 0,0 l/m 6,8 km/h (2 Bft) W-SW 247 4,4 C 7,2 C
20.09.2012 00:51 8,2 C 77 % 1020,3 hPa 0,0 l/m 4,0 km/h (1 Bft) W 270 4,4 C 8,2 C
20.09.2012 00:56 8,3 C 77 % 1020,3 hPa 0,0 l/m 2,2 km/h (1 Bft) W 270 4,5 C 8,3 C
20.09.2012 01:01 8,3 C 77 % 1020,3 hPa 0,0 l/m 3,2 km/h (1 Bft) W-SW 247 4,5 C 8,3 C
20.09.2012 01:06 8,4 C 77 % 1020,3 hPa 0,0 l/m 4,0 km/h (1 Bft) W-SW 247 4,6 C 8,4 C
20.09.2012 01:11 8,4 C 77 % 1020,2 hPa 0,0 l/m 6,8 km/h (2 Bft) W 270 4,6 C 7,4 C
20.09.2012 01:16 8,4 C 77 % 1020,3 hPa 0,0 l/m 14,4 km/h (3 Bft) W 270 4,6 C 6,0 C
20.09.2012 01:21 8,4 C 77 % 1020,3 hPa 0,0 l/m 6,1 km/h (2 Bft) W 270 4,6 C 7,6 C
20.09.2012 01:26 8,3 C 78 % 1020,2 hPa 0,0 l/m 3,2 km/h (1 Bft) W-NW 292 4,7 C 8,3 C
20.09.2012 01:31 8,3 C 78 % 1020,3 hPa 0,0 l/m 8,6 km/h (2 Bft) W 270 4,7 C 6,9 C
20.09.2012 01:36 8,2 C 78 % 1020,2 hPa 0,0 l/m 7,2 km/h (2 Bft) W-SW 247 4,6 C 7,1 C
20.09.2012 01:41 8,1 C 78 % 1020,3 hPa 0,0 l/m 5,0 km/h (1 Bft) W 270 4,5 C 7,6 C
20.09.2012 01:46 8,1 C 78 % 1020,4 hPa 0,0 l/m 7,6 km/h (2 Bft) W-SW 247 4,5 C 6,9 C
20.09.2012 01:51 8,0 C 79 % 1020,4 hPa 0,0 l/m 5,0 km/h (1 Bft) W-NW 292 4,6 C 7,5 C
20.09.2012 01:56 7,9 C 79 % 1020,5 hPa 0,0 l/m 5,0 km/h (1 Bft) W-SW 247 4,5 C 7,4 C
20.09.2012 02:01 7,9 C 79 % 1020,6 hPa 0,0 l/m 7,6 km/h (2 Bft) W-SW 247 4,5 C 6,6 C
20.09.2012 02:06 7,9 C 79 % 1020,6 hPa 0,0 l/m 4,0 km/h (1 Bft) W-NW 292 4,5 C 7,9 C
20.09.2012 02:11 7,9 C 80 % 1020,4 hPa 0,0 l/m 0,0 km/h (0 Bft) W-SW 247 4,7 C 7,9 C
20.09.2012 02:16 7,9 C 80 % 1020,4 hPa 0,0 l/m 4,7 km/h (1 Bft) W-NW 292 4,7 C 7,5 C
20.09.2012 02:21 7,8 C 80 % 1020,3 hPa 0,0 l/m 2,5 km/h (1 Bft) W 270 4,6 C 7,8 C
20.09.2012 02:26 7,8 C 80 % 1020,4 hPa 0,0 l/m 11,2 km/h (2 Bft) W-SW 247 4,6 C 5,8 C
20.09.2012 02:31 7,8 C 80 % 1020,5 hPa 0,0 l/m 10,1 km/h (2 Bft) W-SW 247 4,6 C 6,0 C
20.09.2012 02:36 7,8 C 80 % 1020,5 hPa 0,0 l/m 8,3 km/h (2 Bft) W 270 4,6 C 6,4 C
20.09.2012 02:41 7,8 C 80 % 1020,5 hPa 0,0 l/m 11,2 km/h (2 Bft) W 270 4,6 C 5,8 C
20.09.2012 02:46 7,6 C 80 % 1020,5 hPa 0,0 l/m 7,2 km/h (2 Bft) W-SW 247 4,4 C 6,4 C
20.09.2012 02:51 7,6 C 81 % 1020,6 hPa 0,0 l/m 7,6 km/h (2 Bft) SW 225 4,6 C 6,3 C
20.09.2012 02:56 7,6 C 81 % 1020,5 hPa 0,0 l/m 7,9 km/h (2 Bft) W-SW 247 4,6 C 6,2 C
20.09.2012 03:01 7,6 C 81 % 1020,6 hPa 0,0 l/m 4,7 km/h (1 Bft) W-SW 247 4,6 C 7,1 C
20.09.2012 03:06 7,5 C 81 % 1020,7 hPa 0,0 l/m 4,0 km/h (1 Bft) W 270 4,5 C 7,5 C
20.09.2012 03:11 7,5 C 81 % 1020,7 hPa 0,0 l/m 4,0 km/h (1 Bft) W 270 4,5 C 7,5 C
20.09.2012 03:16 7,4 C 81 % 1020,6 hPa 0,0 l/m 5,8 km/h (2 Bft) W-SW 247 4,4 C 6,5 C
20.09.2012 03:21 7,4 C 81 % 1020,6 hPa 0,0 l/m 2,2 km/h (1 Bft) W-SW 247 4,4 C 7,4 C
20.09.2012 03:26 7,3 C 81 % 1020,5 hPa 0,0 l/m 8,3 km/h (2 Bft) W-SW 247 4,3 C 5,8 C
20.09.2012 03:31 7,3 C 81 % 1020,5 hPa 0,0 l/m 15,1 km/h (3 Bft) W 270 4,3 C 4,6 C
20.09.2012 03:36 7,2 C 81 % 1020,6 hPa 0,0 l/m 5,0 km/h (1 Bft) W 270 4,2 C 6,6 C
20.09.2012 03:41 7,2 C 82 % 1020,6 hPa 0,0 l/m 10,8 km/h (2 Bft) W 270 4,3 C 5,1 C
20.09.2012 03:46 7,2 C 82 % 1020,5 hPa 0,0 l/m 2,2 km/h (1 Bft) W-SW 247 4,3 C 7,2 C
20.09.2012 03:51 7,2 C 82 % 1020,7 hPa 0,0 l/m 3,2 km/h (1 Bft) SW 225 4,3 C 7,2 C
20.09.2012 03:56 7,1 C 82 % 1020,7 hPa 0,0 l/m 4,0 km/h (1 Bft) SW 225 4,2 C 7,1 C
20.09.2012 04:01 7,0 C 82 % 1020,8 hPa 0,0 l/m 4,0 km/h (1 Bft) W-SW 247 4,1 C 7,0 C
20.09.2012 04:06 6,9 C 82 % 1020,9 hPa 0,0 l/m 5,4 km/h (1 Bft) W-SW 247 4,0 C 6,1 C
20.09.2012 04:11 6,9 C 82 % 1020,9 hPa 0,0 l/m 6,5 km/h (2 Bft) W-SW 247 4,0 C 5,8 C
20.09.2012 04:16 6,8 C 82 % 1020,9 hPa 0,0 l/m 0,0 km/h (0 Bft) W-SW 247 3,9 C 6,8 C
20.09.2012 04:21 6,8 C 83 % 1020,9 hPa 0,0 l/m 4,7 km/h (1 Bft) W-SW 247 4,1 C 6,2 C
20.09.2012 04:26 6,7 C 83 % 1020,9 hPa 0,0 l/m 5,4 km/h (1 Bft) W-SW 247 4,0 C 5,9 C
20.09.2012 04:31 6,7 C 83 % 1021,0 hPa 0,0 l/m 5,4 km/h (1 Bft) W 270 4,0 C 5,9 C
20.09.2012 04:36 6,6 C 83 % 1020,9 hPa 0,0 l/m 3,2 km/h (1 Bft) W-SW 247 3,9 C 6,6 C
20.09.2012 04:41 6,6 C 83 % 1020,9 hPa 0,0 l/m 3,6 km/h (1 Bft) W-SW 247 3,9 C 6,6 C
20.09.2012 04:46 6,5 C 83 % 1020,8 hPa 0,0 l/m 4,3 km/h (1 Bft) W-SW 247 3,8 C 6,5 C
20.09.2012 04:51 6,5 C 84 % 1020,7 hPa 0,0 l/m 4,0 km/h (1 Bft) W-SW 247 4,0 C 6,5 C
20.09.2012 04:56 6,4 C 84 % 1020,9 hPa 0,0 l/m 4,3 km/h (1 Bft) W-SW 247 3,9 C 6,4 C
20.09.2012 05:01 6,4 C 84 % 1021,0 hPa 0,0 l/m 5,0 km/h (1 Bft) W-SW 247 3,9 C 5,7 C
20.09.2012 05:06 6,4 C 84 % 1021,0 hPa 0,0 l/m 5,4 km/h (1 Bft) W 270 3,9 C 5,5 C
20.09.2012 05:11 6,4 C 84 % 1021,0 hPa 0,0 l/m 4,0 km/h (1 Bft) W-SW 247 3,9 C 6,4 C
20.09.2012 05:16 6,3 C 84 % 1021,0 hPa 0,0 l/m 5,8 km/h (2 Bft) W-SW 247 3,8 C 5,3 C
20.09.2012 05:21 6,3 C 84 % 1021,1 hPa 0,0 l/m 2,5 km/h (1 Bft) W 270 3,8 C 6,3 C
20.09.2012 05:26 6,3 C 84 % 1021,1 hPa 0,0 l/m 3,2 km/h (1 Bft) W-SW 247 3,8 C 6,3 C
20.09.2012 05:31 6,2 C 85 % 1021,2 hPa 0,0 l/m 5,4 km/h (1 Bft) W 270 3,9 C 5,3 C
20.09.2012 05:36 6,2 C 85 % 1021,2 hPa 0,0 l/m 0,0 km/h (0 Bft) W-SW 247 3,9 C 6,2 C
20.09.2012 05:41 6,2 C 85 % 1021,1 hPa 0,0 l/m 4,7 km/h (1 Bft) W-SW 247 3,9 C 5,6 C
20.09.2012 05:46 6,1 C 85 % 1021,1 hPa 0,0 l/m 12,2 km/h (2 Bft) W-SW 247 3,8 C 3,6 C
20.09.2012 05:51 6,1 C 86 % 1021,1 hPa 0,0 l/m 7,2 km/h (2 Bft) W-SW 247 3,9 C 4,6 C
20.09.2012 05:56 6,1 C 86 % 1021,3 hPa 0,0 l/m 14,4 km/h (3 Bft) W 270 3,9 C 3,2 C
20.09.2012 06:01 6,1 C 86 % 1021,2 hPa 0,0 l/m 8,3 km/h (2 Bft) W 270 3,9 C 4,4 C
20.09.2012 06:06 6,1 C 86 % 1021,4 hPa 0,0 l/m 10,8 km/h (2 Bft) W 270 3,9 C 3,8 C
20.09.2012 06:11 6,1 C 86 % 1021,4 hPa 0,0 l/m 6,1 km/h (2 Bft) W-SW 247 3,9 C 5,0 C
20.09.2012 06:16 6,1 C 86 % 1021,3 hPa 0,0 l/m 10,1 km/h (2 Bft) W 270 3,9 C 4,0 C
20.09.2012 06:21 6,1 C 86 % 1021,4 hPa 0,0 l/m 5,4 km/h (1 Bft) W 270 3,9 C 5,2 C
20.09.2012 06:26 6,1 C 87 % 1021,4 hPa 0,0 l/m 5,0 km/h (1 Bft) W 270 4,1 C 5,3 C
20.09.2012 06:31 6,1 C 87 % 1021,6 hPa 0,0 l/m 7,9 km/h (2 Bft) W-SW 247 4,1 C 4,5 C
20.09.2012 06:36 6,1 C 87 % 1021,6 hPa 0,0 l/m 6,1 km/h (2 Bft) W 270 4,1 C 5,0 C
20.09.2012 06:41 5,9 C 87 % 1021,7 hPa 0,0 l/m 13,3 km/h (3 Bft) W-SW 247 3,9 C 3,1 C
20.09.2012 06:46 5,9 C 87 % 1021,5 hPa 0,0 l/m 10,1 km/h (2 Bft) W-SW 247 3,9 C 3,7 C
20.09.2012 06:51 5,9 C 87 % 1021,5 hPa 0,0 l/m 6,1 km/h (2 Bft) W-SW 247 3,9 C 4,7 C
20.09.2012 06:56 5,9 C 87 % 1021,5 hPa 0,0 l/m 9,7 km/h (2 Bft) W-SW 247 3,9 C 3,8 C
20.09.2012 07:01 5,9 C 87 % 1021,6 hPa 0,0 l/m 7,6 km/h (2 Bft) W-SW 247 3,9 C 4,3 C
20.09.2012 07:06 5,9 C 87 % 1021,6 hPa 0,0 l/m 3,6 km/h (1 Bft) SW 225 3,9 C 5,9 C
20.09.2012 07:11 6,0 C 87 % 1021,6 hPa 0,0 l/m 3,2 km/h (1 Bft) SW 225 4,0 C 6,0 C
20.09.2012 07:16 6,0 C 87 % 1021,8 hPa 0,0 l/m 5,8 km/h (2 Bft) W-SW 247 4,0 C 4,9 C
20.09.2012 07:21 6,1 C 87 % 1021,7 hPa 0,0 l/m 4,3 km/h (1 Bft) S-SW 202 4,1 C 6,1 C
20.09.2012 07:26 6,1 C 87 % 1021,8 hPa 0,0 l/m 6,5 km/h (2 Bft) W 270 4,1 C 4,8 C
20.09.2012 07:31 6,3 C 87 % 1021,9 hPa 0,0 l/m 7,2 km/h (2 Bft) W-SW 247 4,3 C 4,9 C
20.09.2012 07:36 6,3 C 87 % 1021,9 hPa 0,0 l/m 4,7 km/h (1 Bft) W-SW 247 4,3 C 5,7 C
20.09.2012 07:41 6,4 C 87 % 1022,1 hPa 0,0 l/m 8,3 km/h (2 Bft) W-SW 247 4,4 C 4,7 C
20.09.2012 07:46 6,6 C 87 % 1022,1 hPa 0,0 l/m 4,0 km/h (1 Bft) W-SW 247 4,6 C 6,6 C
20.09.2012 07:51 6,7 C 87 % 1022,2 hPa 0,0 l/m 7,6 km/h (2 Bft) W-SW 247 4,7 C 5,2 C
20.09.2012 07:56 6,8 C 87 % 1022,1 hPa 0,0 l/m 6,8 km/h (2 Bft) SW 225 4,8 C 5,6 C
20.09.2012 08:01 6,9 C 87 % 1022,1 hPa 0,0 l/m 9,4 km/h (2 Bft) W-SW 247 4,9 C 5,1 C
20.09.2012 08:06 7,0 C 87 % 1022,1 hPa 0,0 l/m 7,6 km/h (2 Bft) W 270 5,0 C 5,6 C
20.09.2012 08:11 7,2 C 86 % 1022,2 hPa 0,0 l/m 9,4 km/h (2 Bft) W 270 5,0 C 5,4 C
20.09.2012 08:16 7,3 C 86 % 1022,2 hPa 0,0 l/m 5,0 km/h (1 Bft) W 270 5,1 C 6,7 C
20.09.2012 08:21 7,4 C 86 % 1022,2 hPa 0,0 l/m 0,0 km/h (0 Bft) W-SW 247 5,2 C 7,4 C
20.09.2012 08:26 7,5 C 86 % 1022,2 hPa 0,0 l/m 9,7 km/h (2 Bft) W 270 5,3 C 5,7 C
20.09.2012 08:31 7,6 C 86 % 1022,3 hPa 0,0 l/m 16,2 km/h (3 Bft) W 270 5,4 C 4,8 C
20.09.2012 08:36 7,8 C 86 % 1022,3 hPa 0,0 l/m 18,0 km/h (3 Bft) W 270 5,6 C 4,8 C
20.09.2012 08:41 7,9 C 85 % 1022,4 hPa 0,0 l/m 7,2 km/h (2 Bft) W-SW 247 5,5 C 6,7 C
20.09.2012 08:46 8,1 C 85 % 1022,4 hPa 0,0 l/m 19,4 km/h (3 Bft) W 270 5,7 C 5,0 C
20.09.2012 08:51 8,3 C 84 % 1022,4 hPa 0,0 l/m 8,6 km/h (2 Bft) W 270 5,8 C 6,9 C
20.09.2012 08:56 8,4 C 84 % 1022,3 hPa 0,0 l/m 6,1 km/h (2 Bft) SW 225 5,9 C 7,6 C
20.09.2012 09:01 8,6 C 84 % 1022,4 hPa 0,0 l/m 9,4 km/h (2 Bft) W-SW 247 6,1 C 7,1 C
20.09.2012 09:06 8,8 C 83 % 1022,5 hPa 0,0 l/m 7,9 km/h (2 Bft) W 270 6,1 C 7,6 C
20.09.2012 09:11 9,0 C 83 % 1022,5 hPa 0,0 l/m 12,6 km/h (3 Bft) W 270 6,3 C 7,0 C
20.09.2012 09:16 9,2 C 82 % 1022,6 hPa 0,0 l/m 7,6 km/h (2 Bft) W 270 6,3 C 8,2 C
20.09.2012 09:21 9,3 C 82 % 1022,6 hPa 0,0 l/m 4,0 km/h (1 Bft) W-NW 292 6,4 C 9,3 C
20.09.2012 09:26 9,5 C 81 % 1022,8 hPa 0,0 l/m 21,2 km/h (4 Bft) W 270 6,4 C 6,6 C
20.09.2012 09:31 9,7 C 80 % 1022,7 hPa 0,0 l/m 14,4 km/h (3 Bft) W 270 6,4 C 7,6 C
20.09.2012 09:36 9,9 C 80 % 1022,9 hPa 0,0 l/m 10,4 km/h (2 Bft) W 270 6,6 C 8,4 C
20.09.2012 09:41 10,1 C 79 % 1022,9 hPa 0,0 l/m 13,3 km/h (3 Bft) W-SW 247 6,6 C 10,1 C
20.09.2012 09:46 10,2 C 78 % 1022,8 hPa 0,0 l/m 9,0 km/h (2 Bft) W 270 6,5 C 10,2 C
20.09.2012 09:51 10,4 C 79 % 1022,7 hPa 0,0 l/m 13,3 km/h (3 Bft) W 270 6,9 C 10,4 C
20.09.2012 09:56 10,4 C 78 % 1022,7 hPa 0,0 l/m 7,6 km/h (2 Bft) W 270 6,7 C 10,4 C
20.09.2012 10:01 10,8 C 77 % 1022,6 hPa 0,0 l/m 12,2 km/h (2 Bft) W 270 6,9 C 10,8 C
20.09.2012 10:06 10,9 C 77 % 1022,7 hPa 0,0 l/m 5,0 km/h (1 Bft) NW 315 7,0 C 10,9 C
20.09.2012 10:11 11,1 C 76 % 1022,7 hPa 0,0 l/m 17,3 km/h (3 Bft) W 270 7,0 C 11,1 C
20.09.2012 10:16 11,3 C 75 % 1022,7 hPa 0,0 l/m 4,0 km/h (1 Bft) W-SW 247 7,0 C 11,3 C
20.09.2012 10:21 11,4 C 75 % 1022,8 hPa 0,0 l/m 6,8 km/h (2 Bft) W-SW 247 7,1 C 11,4 C
20.09.2012 10:26 11,6 C 74 % 1023,0 hPa 0,0 l/m 7,6 km/h (2 Bft) W 270 7,1 C 11,6 C
20.09.2012 10:31 11,8 C 73 % 1022,9 hPa 0,0 l/m 5,8 km/h (2 Bft) W-NW 292 7,1 C 11,8 C
20.09.2012 10:36 11,8 C 73 % 1023,1 hPa 0,0 l/m 9,7 km/h (2 Bft) W 270 7,1 C 11,8 C
20.09.2012 10:41 11,9 C 72 % 1023,0 hPa 0,0 l/m 4,0 km/h (1 Bft) W-NW 292 7,0 C 11,9 C
20.09.2012 10:46 12,1 C 72 % 1023,1 hPa 0,0 l/m 4,3 km/h (1 Bft) W-NW 292 7,2 C 12,1 C
20.09.2012 10:51 12,3 C 71 % 1023,1 hPa 0,0 l/m 3,2 km/h (1 Bft) W 270 7,2 C 12,3 C
20.09.2012 10:56 12,4 C 71 % 1022,9 hPa 0,0 l/m 7,2 km/h (2 Bft) W 270 7,3 C 12,4 C
20.09.2012 11:01 12,6 C 70 % 1023,0 hPa 0,0 l/m 3,2 km/h (1 Bft) W 270 7,3 C 12,6 C
20.09.2012 11:06 12,8 C 70 % 1022,9 hPa 0,0 l/m 14,4 km/h (3 Bft) W-SW 247 7,5 C 12,8 C
20.09.2012 11:11 12,9 C 69 % 1023,1 hPa 0,0 l/m 8,6 km/h (2 Bft) W-NW 292 7,4 C 12,9 C
20.09.2012 11:16 13,1 C 68 % 1023,0 hPa 0,0 l/m 5,4 km/h (1 Bft) W-NW 292 7,3 C 13,1 C
20.09.2012 11:21 13,3 C 68 % 1023,1 hPa 0,0 l/m 15,8 km/h (3 Bft) W-SW 247 7,5 C 13,3 C
20.09.2012 11:26 13,4 C 67 % 1023,1 hPa 0,0 l/m 5,0 km/h (1 Bft) W-SW 247 7,4 C 13,4 C
20.09.2012 11:31 13,5 C 66 % 1023,0 hPa 0,0 l/m 6,1 km/h (2 Bft) SW 225 7,3 C 13,5 C
20.09.2012 11:36 13,6 C 66 % 1023,0 hPa 0,0 l/m 4,0 km/h (1 Bft) SW 225 7,4 C 13,6 C
20.09.2012 11:41 13,9 C 65 % 1023,0 hPa 0,0 l/m 22,7 km/h (4 Bft) W 270 7,4 C 13,9 C
20.09.2012 11:46 14,0 C 64 % 1023,1 hPa 0,0 l/m 15,5 km/h (3 Bft) W 270 7,3 C 14,0 C
20.09.2012 11:51 14,0 C 63 % 1023,0 hPa 0,0 l/m 15,8 km/h (3 Bft) W-SW 247 7,1 C 14,0 C
20.09.2012 11:56 14,2 C 64 % 1023,0 hPa 0,0 l/m 9,0 km/h (2 Bft) SW 225 7,5 C 14,2 C
20.09.2012 12:01 14,3 C 62 % 1022,9 hPa 0,0 l/m 11,2 km/h (2 Bft) W-SW 247 7,1 C 14,3 C
20.09.2012 12:06 14,3 C 63 % 1022,9 hPa 0,0 l/m 4,7 km/h (1 Bft) W-NW 292 7,4 C 14,3 C
20.09.2012 12:11 14,6 C 63 % 1022,8 hPa 0,0 l/m 8,3 km/h (2 Bft) SW 225 7,6 C 14,6 C
20.09.2012 12:16 14,9 C 61 % 1022,9 hPa 0,0 l/m 7,9 km/h (2 Bft) W-NW 292 7,4 C 14,9 C
20.09.2012 12:21 15,1 C 60 % 1022,9 hPa 0,0 l/m 3,6 km/h (1 Bft) N-NW 337 7,4 C 15,1 C
20.09.2012 12:26 15,3 C 59 % 1022,9 hPa 0,0 l/m 11,9 km/h (2 Bft) NW 315 7,3 C 15,3 C
20.09.2012 12:31 15,5 C 58 % 1022,9 hPa 0,0 l/m 4,0 km/h (1 Bft) W-SW 247 7,3 C 15,5 C
20.09.2012 12:36 15,8 C 57 % 1022,8 hPa 0,0 l/m 12,6 km/h (3 Bft) W-SW 247 7,3 C 15,8 C
20.09.2012 12:41 15,6 C 55 % 1022,7 hPa 0,0 l/m 12,6 km/h (3 Bft) W 270 6,6 C 15,6 C
20.09.2012 12:46 15,5 C 55 % 1022,9 hPa 0,0 l/m 16,9 km/h (3 Bft) W-SW 247 6,5 C 15,5 C
20.09.2012 12:51 15,4 C 55 % 1022,9 hPa 0,0 l/m 8,6 km/h (2 Bft) SW 225 6,4 C 15,4 C
20.09.2012 12:56 15,2 C 55 % 1022,7 hPa 0,0 l/m 16,6 km/h (3 Bft) W 270 6,2 C 15,2 C
20.09.2012 13:01 14,9 C 55 % 1022,7 hPa 0,0 l/m 19,1 km/h (3 Bft) SW 225 5,9 C 14,9 C
20.09.2012 13:06 14,9 C 55 % 1022,8 hPa 0,0 l/m 6,1 km/h (2 Bft) W-SW 247 5,9 C 14,9 C
20.09.2012 13:11 14,9 C 55 % 1022,8 hPa 0,0 l/m 9,4 km/h (2 Bft) S-SW 202 5,9 C 14,9 C
20.09.2012 13:16 14,9 C 55 % 1022,6 hPa 0,0 l/m 7,2 km/h (2 Bft) W-SW 247 5,9 C 14,9 C
20.09.2012 13:21 14,9 C 55 % 1022,6 hPa 0,0 l/m 6,1 km/h (2 Bft) NW 315 5,9 C 14,9 C
20.09.2012 13:26 15,2 C 54 % 1022,6 hPa 0,0 l/m 10,1 km/h (2 Bft) S-SW 202 6,0 C 15,2 C
20.09.2012 13:31 15,6 C 54 % 1022,6 hPa 0,0 l/m 12,6 km/h (3 Bft) W 270 6,3 C 15,6 C
20.09.2012 13:36 15,9 C 52 % 1022,6 hPa 0,0 l/m 18,7 km/h (3 Bft) S-SW 202 6,1 C 15,9 C
20.09.2012 13:41 16,3 C 51 % 1022,5 hPa 0,0 l/m 20,2 km/h (4 Bft) W-SW 247 6,1 C 16,3 C
20.09.2012 13:46 16,6 C 50 % 1022,3 hPa 0,0 l/m 14,0 km/h (3 Bft) SW 225 6,1 C 16,6 C
20.09.2012 13:51 16,8 C 49 % 1022,3 hPa 0,0 l/m 19,1 km/h (3 Bft) W-SW 247 6,0 C 16,8 C
20.09.2012 13:56 16,9 C 49 % 1022,5 hPa 0,0 l/m 18,4 km/h (3 Bft) W-SW 247 6,1 C 16,9 C
20.09.2012 14:01 17,1 C 48 % 1022,5 hPa 0,0 l/m 16,6 km/h (3 Bft) W-SW 247 6,0 C 17,1 C
20.09.2012 14:06 17,1 C 48 % 1022,5 hPa 0,0 l/m 10,8 km/h (2 Bft) SO 135 6,0 C 17,1 C
20.09.2012 14:11 16,9 C 47 % 1022,5 hPa 0,0 l/m 8,6 km/h (2 Bft) W-SW 247 5,5 C 16,9 C
20.09.2012 14:16 16,9 C 48 % 1022,4 hPa 0,0 l/m 14,8 km/h (3 Bft) W 270 5,8 C 16,9 C
20.09.2012 14:21 16,8 C 47 % 1022,4 hPa 0,0 l/m 14,8 km/h (3 Bft) W 270 5,4 C 16,8 C
20.09.2012 14:26 16,4 C 47 % 1022,4 hPa 0,0 l/m 4,7 km/h (1 Bft) SW 225 5,1 C 16,4 C
20.09.2012 14:31 16,5 C 47 % 1022,2 hPa 0,0 l/m 8,3 km/h (2 Bft) W 270 5,2 C 16,5 C
20.09.2012 14:36 16,7 C 45 % 1022,2 hPa 0,0 l/m 10,1 km/h (2 Bft) S-SO 157 4,7 C 16,7 C
20.09.2012 14:41 16,5 C 45 % 1022,2 hPa 0,0 l/m 7,9 km/h (2 Bft) W-SW 247 4,5 C 16,5 C
20.09.2012 14:46 16,4 C 45 % 1022,3 hPa 0,0 l/m 5,8 km/h (2 Bft) W 270 4,4 C 16,4 C
20.09.2012 14:51 16,3 C 46 % 1022,3 hPa 0,0 l/m 24,8 km/h (4 Bft) W-SW 247 4,7 C 16,3 C
20.09.2012 14:56 16,7 C 45 % 1022,3 hPa 0,0 l/m 15,5 km/h (3 Bft) SW 225 4,7 C 16,7 C
20.09.2012 15:01 16,8 C 44 % 1022,1 hPa 0,0 l/m 7,6 km/h (2 Bft) S-SO 157 4,5 C 16,8 C
20.09.2012 15:06 16,9 C 44 % 1022,0 hPa 0,0 l/m 30,2 km/h (5 Bft) W-SW 247 4,6 C 16,9 C
20.09.2012 15:11 17,2 C 43 % 1022,1 hPa 0,0 l/m 10,4 km/h (2 Bft) W 270 4,5 C 17,2 C
20.09.2012 15:16 17,3 C 43 % 1022,1 hPa 0,0 l/m 25,2 km/h (4 Bft) W 270 4,6 C 17,3 C
20.09.2012 15:21 17,3 C 42 % 1022,1 hPa 0,0 l/m 6,8 km/h (2 Bft) W 270 4,3 C 17,3 C
20.09.2012 15:26 17,3 C 42 % 1022,1 hPa 0,0 l/m 6,8 km/h (2 Bft) SW 225 4,3 C 17,3 C
20.09.2012 15:31 17,3 C 42 % 1022,0 hPa 0,0 l/m 11,9 km/h (2 Bft) W-SW 247 4,3 C 17,3 C
20.09.2012 15:36 17,1 C 42 % 1022,0 hPa 0,0 l/m 7,6 km/h (2 Bft) W-SW 247 4,1 C 17,1 C
20.09.2012 15:41 17,2 C 42 % 1022,1 hPa 0,0 l/m 11,9 km/h (2 Bft) SW 225 4,2 C 17,2 C
20.09.2012 15:46 16,9 C 42 % 1021,9 hPa 0,0 l/m 4,3 km/h (1 Bft) W-SW 247 3,9 C 16,9 C
20.09.2012 15:51 16,8 C 43 % 1022,0 hPa 0,0 l/m 16,6 km/h (3 Bft) NW 315 4,2 C 16,8 C
20.09.2012 15:56 16,8 C 43 % 1022,1 hPa 0,0 l/m 12,2 km/h (2 Bft) W-NW 292 4,2 C 16,8 C
20.09.2012 16:01 16,7 C 42 % 1022,1 hPa 0,0 l/m 11,2 km/h (2 Bft) S-SW 202 3,7 C 16,7 C
20.09.2012 16:06 16,6 C 43 % 1022,0 hPa 0,0 l/m 14,8 km/h (3 Bft) W 270 4,0 C 16,6 C
20.09.2012 16:11 16,6 C 44 % 1021,9 hPa 0,0 l/m 9,7 km/h (2 Bft) W-SW 247 4,3 C 16,6 C
20.09.2012 16:16 16,6 C 43 % 1021,9 hPa 0,0 l/m 7,9 km/h (2 Bft) W-SW 247 4,0 C 16,6 C
20.09.2012 16:21 16,6 C 44 % 1021,9 hPa 0,0 l/m 14,0 km/h (3 Bft) W-SW 247 4,3 C 16,6 C
20.09.2012 16:26 16,5 C 45 % 1021,8 hPa 0,0 l/m 6,1 km/h (2 Bft) W 270 4,5 C 16,5 C
20.09.2012 16:31 16,5 C 45 % 1021,8 hPa 0,0 l/m 10,1 km/h (2 Bft) W 270 4,5 C 16,5 C
20.09.2012 16:36 16,4 C 44 % 1021,8 hPa 0,0 l/m 13,3 km/h (3 Bft) W-SW 247 4,1 C 16,4 C
20.09.2012 16:41 16,4 C 45 % 1021,9 hPa 0,0 l/m 6,1 km/h (2 Bft) W 270 4,4 C 16,4 C
20.09.2012 16:46 16,3 C 45 % 1021,8 hPa 0,0 l/m 11,9 km/h (2 Bft) W 270 4,3 C 16,3 C
20.09.2012 16:51 16,2 C 45 % 1021,9 hPa 0,0 l/m 6,5 km/h (2 Bft) SW 225 4,3 C 16,2 C
20.09.2012 16:56 16,0 C 46 % 1021,9 hPa 0,0 l/m 10,1 km/h (2 Bft) W-SW 247 4,4 C 16,0 C
20.09.2012 17:01 15,9 C 46 % 1021,8 hPa 0,0 l/m 3,2 km/h (1 Bft) SW 225 4,3 C 15,9 C
20.09.2012 17:06 15,9 C 47 % 1021,8 hPa 0,0 l/m 5,8 km/h (2 Bft) W-SW 247 4,6 C 15,9 C
20.09.2012 17:11 15,8 C 48 % 1021,8 hPa 0,0 l/m 10,4 km/h (2 Bft) SW 225 4,8 C 15,8 C
20.09.2012 17:16 15,8 C 49 % 1021,9 hPa 0,0 l/m 10,1 km/h (2 Bft) W 270 5,1 C 15,8 C
20.09.2012 17:21 15,6 C 49 % 1021,9 hPa 0,0 l/m 6,1 km/h (2 Bft) W-NW 292 4,9 C 15,6 C
20.09.2012 17:26 15,6 C 50 % 1021,8 hPa 0,0 l/m 20,9 km/h (4 Bft) W-SW 247 5,2 C 15,6 C
20.09.2012 17:31 15,5 C 50 % 1021,8 hPa 0,0 l/m 11,9 km/h (2 Bft) W-SW 247 5,1 C 15,5 C
20.09.2012 17:36 15,4 C 50 % 1022,0 hPa 0,0 l/m 5,0 km/h (1 Bft) W-SW 247 5,0 C 15,4 C
20.09.2012 17:41 15,4 C 51 % 1021,8 hPa 0,0 l/m 10,4 km/h (2 Bft) W 270 5,3 C 15,4 C
20.09.2012 17:46 15,3 C 51 % 1021,9 hPa 0,0 l/m 4,7 km/h (1 Bft) W-SW 247 5,2 C 15,3 C
20.09.2012 17:51 15,2 C 52 % 1021,8 hPa 0,0 l/m 7,2 km/h (2 Bft) W-SW 247 5,4 C 15,2 C
20.09.2012 17:56 15,1 C 52 % 1021,9 hPa 0,0 l/m 6,8 km/h (2 Bft) W-SW 247 5,3 C 15,1 C
20.09.2012 18:01 14,9 C 52 % 1021,9 hPa 0,0 l/m 8,3 km/h (2 Bft) W 270 5,1 C 14,9 C
20.09.2012 18:06 14,9 C 52 % 1022,0 hPa 0,0 l/m 12,2 km/h (2 Bft) W-SW 247 5,1 C 14,9 C
20.09.2012 18:11 14,9 C 53 % 1021,9 hPa 0,0 l/m 11,9 km/h (2 Bft) W 270 5,4 C 14,9 C
20.09.2012 18:16 14,9 C 53 % 1022,0 hPa 0,0 l/m 11,2 km/h (2 Bft) S-SW 202 5,4 C 14,9 C
20.09.2012 18:21 14,8 C 53 % 1022,0 hPa 0,0 l/m 9,7 km/h (2 Bft) W-SW 247 5,3 C 14,8 C
20.09.2012 18:26 14,6 C 53 % 1022,0 hPa 0,0 l/m 5,0 km/h (1 Bft) W-SW 247 5,1 C 14,6 C
20.09.2012 18:31 14,6 C 54 % 1021,9 hPa 0,0 l/m 12,2 km/h (2 Bft) S-SW 202 5,4 C 14,6 C
20.09.2012 18:36 14,5 C 54 % 1022,0 hPa 0,0 l/m 4,3 km/h (1 Bft) W-SW 247 5,3 C 14,5 C
20.09.2012 18:41 14,4 C 54 % 1022,0 hPa 0,0 l/m 3,6 km/h (1 Bft) W-SW 247 5,2 C 14,4 C
20.09.2012 18:46 14,4 C 54 % 1022,0 hPa 0,0 l/m 6,8 km/h (2 Bft) W-SW 247 5,2 C 14,4 C
20.09.2012 18:51 14,2 C 55 % 1022,0 hPa 0,0 l/m 7,2 km/h (2 Bft) SW 225 5,3 C 14,2 C
20.09.2012 18:56 14,1 C 55 % 1022,1 hPa 0,0 l/m 6,5 km/h (2 Bft) W-SW 247 5,2 C 14,1 C
20.09.2012 19:01 14,1 C 55 % 1022,1 hPa 0,0 l/m 5,4 km/h (1 Bft) W-SW 247 5,2 C 14,1 C
20.09.2012 19:06 13,9 C 55 % 1022,1 hPa 0,0 l/m 5,0 km/h (1 Bft) W-SW 247 5,0 C 13,9 C
20.09.2012 19:11 13,9 C 55 % 1022,1 hPa 0,0 l/m 6,1 km/h (2 Bft) W-SW 247 5,0 C 13,9 C
20.09.2012 19:16 13,8 C 56 % 1022,1 hPa 0,0 l/m 5,8 km/h (2 Bft) W-SW 247 5,2 C 13,8 C
20.09.2012 19:21 13,8 C 56 % 1022,2 hPa 0,0 l/m 3,6 km/h (1 Bft) W-SW 247 5,2 C 13,8 C
20.09.2012 19:26 13,6 C 56 % 1022,2 hPa 0,0 l/m 3,6 km/h (1 Bft) W-SW 247 5,0 C 13,6 C
20.09.2012 19:31 13,5 C 57 % 1022,2 hPa 0,0 l/m 1,4 km/h (1 Bft) SW 225 5,2 C 13,5 C
20.09.2012 19:36 13,5 C 57 % 1022,2 hPa 0,0 l/m 0,0 km/h (0 Bft) W-SW 247 5,2 C 13,5 C
20.09.2012 19:41 13,4 C 57 % 1022,3 hPa 0,0 l/m 1,4 km/h (1 Bft) SW 225 5,1 C 13,4 C
20.09.2012 19:46 13,3 C 57 % 1022,3 hPa 0,0 l/m 0,0 km/h (0 Bft) SW 225 5,0 C 13,3 C
20.09.2012 19:51 13,3 C 57 % 1022,3 hPa 0,0 l/m 0,0 km/h (0 Bft) SW 225 5,0 C 13,3 C
20.09.2012 19:56 13,2 C 58 % 1022,4 hPa 0,0 l/m 0,0 km/h (0 Bft) SW 225 5,1 C 13,2 C
20.09.2012 20:01 13,1 C 58 % 1022,4 hPa 0,0 l/m 2,2 km/h (1 Bft) SW 225 5,0 C 13,1 C
20.09.2012 20:06 13,0 C 58 % 1022,4 hPa 0,0 l/m 1,4 km/h (1 Bft) SW 225 4,9 C 13,0 C
20.09.2012 20:11 12,9 C 59 % 1022,5 hPa 0,0 l/m 1,4 km/h (1 Bft) SW 225 5,1 C 12,9 C
20.09.2012 20:16 12,8 C 59 % 1022,4 hPa 0,0 l/m 2,5 km/h (1 Bft) SW 225 5,0 C 12,8 C
20.09.2012 20:21 12,7 C 59 % 1022,4 hPa 0,0 l/m 0,0 km/h (0 Bft) SW 225 4,9 C 12,7 C
20.09.2012 20:26 12,6 C 60 % 1022,4 hPa 0,0 l/m 0,0 km/h (0 Bft) SW 225 5,0 C 12,6 C
20.09.2012 20:31 12,4 C 60 % 1022,5 hPa 0,0 l/m 1,4 km/h (1 Bft) SW 225 4,9 C 12,4 C
20.09.2012 20:36 12,3 C 60 % 1022,5 hPa 0,0 l/m 1,4 km/h (1 Bft) SW 225 4,8 C 12,3 C
20.09.2012 20:41 12,1 C 60 % 1022,4 hPa 0,0 l/m 1,4 km/h (1 Bft) SW 225 4,6 C 12,1 C
20.09.2012 20:46 11,9 C 61 % 1022,5 hPa 0,0 l/m 2,2 km/h (1 Bft) SW 225 4,6 C 11,9 C
20.09.2012 20:51 11,9 C 62 % 1022,5 hPa 0,0 l/m 0,0 km/h (0 Bft) SW 225 4,9 C 11,9 C
20.09.2012 20:56 11,8 C 62 % 1022,5 hPa 0,0 l/m 2,2 km/h (1 Bft) SW 225 4,8 C 11,8 C
20.09.2012 21:01 11,6 C 63 % 1022,5 hPa 0,0 l/m 2,5 km/h (1 Bft) SW 225 4,8 C 11,6 C
20.09.2012 21:06 11,4 C 63 % 1022,5 hPa 0,0 l/m 0,0 km/h (0 Bft) SW 225 4,6 C 11,4 C
20.09.2012 21:11 11,3 C 64 % 1022,5 hPa 0,0 l/m 1,1 km/h (1 Bft) SW 225 4,7 C 11,3 C
20.09.2012 21:16 11,1 C 64 % 1022,5 hPa 0,0 l/m 0,0 km/h (0 Bft) SW 225 4,6 C 11,1 C
20.09.2012 21:21 11,0 C 65 % 1022,6 hPa 0,0 l/m 1,4 km/h (1 Bft) SW 225 4,7 C 11,0 C
20.09.2012 21:26 10,9 C 65 % 1022,5 hPa 0,0 l/m 0,0 km/h (0 Bft) SW 225 4,6 C 10,9 C
20.09.2012 21:31 10,8 C 65 % 1022,5 hPa 0,0 l/m 2,9 km/h (1 Bft) SW 225 4,5 C 10,8 C
20.09.2012 21:36 10,6 C 66 % 1022,6 hPa 0,0 l/m 1,4 km/h (1 Bft) S-SW 202 4,5 C 10,6 C
20.09.2012 21:41 10,6 C 66 % 1022,5 hPa 0,0 l/m 2,2 km/h (1 Bft) S-SW 202 4,5 C 10,6 C
20.09.2012 21:46 10,5 C 67 % 1022,5 hPa 0,0 l/m 2,2 km/h (1 Bft) S 180 4,6 C 10,5 C
20.09.2012 21:51 10,4 C 67 % 1022,6 hPa 0,0 l/m 2,2 km/h (1 Bft) S-SW 202 4,5 C 10,4 C
20.09.2012 21:56 10,3 C 67 % 1022,6 hPa 0,0 l/m 2,2 km/h (1 Bft) S 180 4,4 C 10,3 C
20.09.2012 22:01 10,2 C 68 % 1022,5 hPa 0,0 l/m 0,0 km/h (0 Bft) S 180 4,6 C 10,2 C
20.09.2012 22:06 10,1 C 68 % 1022,5 hPa 0,0 l/m 2,5 km/h (1 Bft) S 180 4,5 C 10,1 C
20.09.2012 22:11 9,9 C 68 % 1022,5 hPa 0,0 l/m 2,9 km/h (1 Bft) S 180 4,3 C 9,9 C
20.09.2012 22:16 9,9 C 69 % 1022,5 hPa 0,0 l/m 1,8 km/h (1 Bft) S 180 4,5 C 9,9 C
20.09.2012 22:21 9,8 C 69 % 1022,5 hPa 0,0 l/m 0,0 km/h (0 Bft) S 180 4,4 C 9,8 C
20.09.2012 22:26 9,7 C 69 % 1022,5 hPa 0,0 l/m 2,2 km/h (1 Bft) S 180 4,3 C 9,7 C
20.09.2012 22:31 9,5 C 69 % 1022,5 hPa 0,0 l/m 2,5 km/h (1 Bft) S-SO 157 4,1 C 9,5 C
20.09.2012 22:36 9,4 C 70 % 1022,5 hPa 0,0 l/m 0,0 km/h (0 Bft) S-SW 202 4,2 C 9,4 C
20.09.2012 22:41 9,4 C 70 % 1022,5 hPa 0,0 l/m 2,2 km/h (1 Bft) S-SW 202 4,2 C 9,4 C
20.09.2012 22:46 9,4 C 70 % 1022,5 hPa 0,0 l/m 2,5 km/h (1 Bft) S 180 4,2 C 9,4 C
20.09.2012 22:51 9,3 C 70 % 1022,5 hPa 0,0 l/m 1,4 km/h (1 Bft) S-SO 157 4,1 C 9,3 C
20.09.2012 22:56 9,3 C 71 % 1022,4 hPa 0,0 l/m 3,6 km/h (1 Bft) S-SO 157 4,3 C 9,3 C
20.09.2012 23:01 9,3 C 71 % 1022,4 hPa 0,0 l/m 1,8 km/h (1 Bft) S 180 4,3 C 9,3 C
20.09.2012 23:06 9,3 C 71 % 1022,4 hPa 0,0 l/m 0,0 km/h (0 Bft) S 180 4,3 C 9,3 C
20.09.2012 23:11 9,3 C 71 % 1022,5 hPa 0,0 l/m 3,2 km/h (1 Bft) S 180 4,3 C 9,3 C
20.09.2012 23:16 9,3 C 72 % 1022,5 hPa 0,0 l/m 2,2 km/h (1 Bft) S 180 4,5 C 9,3 C
20.09.2012 23:21 9,3 C 72 % 1022,4 hPa 0,0 l/m 2,2 km/h (1 Bft) S-SO 157 4,5 C 9,3 C
20.09.2012 23:26 9,3 C 72 % 1022,5 hPa 0,0 l/m 3,6 km/h (1 Bft) S-SO 157 4,5 C 9,3 C
20.09.2012 23:31 9,4 C 72 % 1022,5 hPa 0,0 l/m 2,5 km/h (1 Bft) S-SO 157 4,6 C 9,4 C
20.09.2012 23:36 9,3 C 72 % 1022,5 hPa 0,0 l/m 2,9 km/h (1 Bft) S-SO 157 4,5 C 9,3 C
20.09.2012 23:41 9,3 C 72 % 1022,5 hPa 0,0 l/m 2,9 km/h (1 Bft) S-SO 157 4,5 C 9,3 C
20.09.2012 23:46 9,3 C 72 % 1022,6 hPa 0,0 l/m 5,8 km/h (2 Bft) S-SO 157 4,5 C 8,7 C
20.09.2012 23:51 9,2 C 73 % 1022,6 hPa 0,0 l/m 2,9 km/h (1 Bft) S-SO 157 4,6 C 9,2 C
20.09.2012 23:56 9,1 C 73 % 1022,7 hPa 0,0 l/m 4,0 km/h (1 Bft) S-SO 157 4,5 C 9,1 C
_ Min-Zeit 06:41 15:21 00:16 - 00:11 - - 16:01 06:41
Minimum _ 5,9 C 42 % 1020,0 hPa - 0,0 km/h (0 Bft) - - 3,7 C 3,1 C
_ Max-Zeit 15:16 06:26 10:36 00:01 15:06 - - 12:11 15:16
Maximum _ 17,3 C 87 % 1023,1 hPa 0,0 l/m 30,2 km/h
W-SW (5 Bft)
- - 7,6 C 17,3 C
Durchschnitt _ 11,1 C 68 % 1021,9 hPa #0,0 l/m 7,1 km/h (2 Bft) W-SW - 5,0 C 10,7 C
(c) by David Heller